2023-116A (57519 NORAD) Tracking and Keplerian Element Data

This shows tracking and keplerian element data for the satellite.

Feedback or suggestion? Click here.




ElementValue
Catalog57519
Name2023-116A
Epoch Orbit277
Epoch Day239.12159302
Epoch Year2023
RAAN245.1259
Inclination97.3955
Eccentricity0.0012629
Argument of Perigee189.0723
Mean Anonmoly171.0288
Mean Motion15.23927058
Decay Rate0.00010381
L11 57519U 23116A 23239.12159302 .00010381 00000+0 43129-3 0 9996
L22 57519 97.3955 245.1259 0012629 189.0723 171.0288 15.23927058 2770



Live tracking and technical data element details for 2023-116A (NORAD 57519). 2023-116A can be tracked NOW for your location showing map with azimuth and elevation plus other details from your city location.







IsCatalogInMostPopularTable: catalog: 57519, numindb: 19
Update: records affected: 1



GetName: 57519 2023-116A

Hit Count: updated at: Mon, 04 Dec 2023 04:15:05 GMT